星链-3948 (STARLINK-3948 )

导读

STARLINK-3948是美国星链项目卫星,由SpaceX于2022年5月13日发射升空,属于星链卫星互联网星座的组成部分。星链计划旨在构建全球卫星互联网,为全球偏远地区、海上等场景提供高速网络接入服务。该卫星入轨后,进一步扩充了星链星座的卫星规模,助力星座组网推进,提升卫星网络服务覆盖与能力。

基本信息
目录编号:
52546
目录名称:
STARLINK-3948
国际标识:
2022-051P
轨道中心:
EARTH
卫星名称:
星链-3948
卫星全名:
星链-3948 (STARLINK-3948 )
卫星状态:
在轨 (已飞行1583 天)
发射日期:
2022-05-13 UTC
国别 :
美国 (US)
星等 :
--
该卫星已列入 空间交会检测服务 Space Conjunction Data Service (SCDS) ,当前飞行风险评估等级: 无高风险
轨道信息
数据来源 国际轨道数据 AOE轨道数据
星历时间 2026-09-11T21:25:08+0800
18小时前
查看轨道信息
2026-09-10T07:00:00+0800
2天前
查看轨道信息
半长轴 6840.909km 6840.933km
偏心率 0.0001473 0.0001253
轨道倾角 53.163° 53.161°
近地点辐角 90.529° 85.732°
升交点赤经 359.549° 7.032°
平近点角 269.588° 67.054°
近地点 461.764km 461.938km
远地点 463.78km 463.654km
周期 93.849分钟 93.850分钟
每日圈数 15.343772 15.343688
详细信息
固有亮度:
5
最大亮度:
2.5
卫星平台:
Starlink v1.5
覆盖范围:
全球
运营商:
太空探索技术公司
运营商所在国:
美国
制造商(研发单位):
太空探索技术公司
制造商所在国:
美国
使用方式:
暂无
卫星简介
星链(Starlink)计划是由太空探索技术公司(SpaceX)提出的一个巨型低轨卫星互联网星座项目,计划在2019年至2024年间在太空搭建由约1.2万颗卫星组成的“星链”网络,其中1584颗将部署在地球上空550千米处的近地轨道,并从2020年开始工作。该卫星仍在工作。
2D轨道图
3D轨道图
轨道高度分析图
轨道倾角分析图
轨道综合分析图
查看轨道综合分析图
交会数据列表
事件ID 空间交会对象 最接近时刻(TCA) 交会距离 交会风险概率(CRP) 交会风险指数(CRI) 操作
CDM_260914-101605-254606-568421
2026-09-14T
10:16:28+0000
0.706 km
远距离
7.266598E-5 中风险 0.72
CDM_260914-115005-254606-568421
2026-09-14T
11:50:16+0000
2.134 km
极远距离
2.14589E-6 低风险 0.42
CDM_260914-084205-254606-568421
2026-09-14T
08:42:41+0000
2.784 km
极远距离
1.310576E-6 低风险 0.37
CDM_260905-071105-254605-702321
OBJECT V (57023)
2026-09-05T
07:11:19+0000
2.372 km
极远距离
1.20205E-6 低风险 0.37
与全量物体交会距离演化趋势
与全量物体交会风险概率演化趋势